Weather in Lörrach

Germany     47°36′39″N   7°39′48″E
temp.,
°C
wind,
m/s
gust,
m/s
humid.,
%
clouds,
%
prec.,
mm/h
press.,
hPa
HPBL,
m
6 may, thu
thu623:00+4wsw2278100 0.0 101631
02:00+4sse1177100 0.0 101615
05:00+4sse1173100 0.0 101428
08:00+6sse1268100 0.0 1014134
11:00+8w2771100 0.2 10121130
14:00+7ssw31394100 3.9 10101362
17:00+8ssw51593100 3.3 10081404
20:00+9wsw41492100 7.5 10081434
7 may, fri
fri723:00+7sw2395100 0.9 101078
02:00+6sw2295100 1.3 101151
05:00+5wnw41098100 4.1 1013841
08:00+3w3999100 8.9 1016616
11:00+5w379137 1.2 1017741
14:00+8w456574 1.4 10191146
17:00+10wnw345646 0.1 10191322
20:00+7se117811 0.1 101918
8 may, sat
sat823:00+3se21985 0.0 102227
02:00+2se2298100 0.0 102234
05:00+1ese2298100 0.0 102143
08:00+4se239130 0.0 1021178
11:00+13se235660 0.0 1018865
14:00+18wsw1440100 0.0 10161649
17:00+19s14446 0.0 10141673
20:00+14se22725 0.0 101417
9 may, sun
sun923:00+9se2287100 0.0 101538
02:00+8se34945 0.0 101467
05:00+6se349234 0.0 101384
08:00+9se357189 0.0 1012152
11:00+17se354678 0.0 1010449
14:00+23ese33355 0.0 1008941
17:00+24ese34396 0.0 10061078
20:00+17ese23749 0.0 100741
10 may, mon
mon1023:00+12sse2190100 0.0 100816
02:00+10se33890 0.0 100959
05:00+8ssw1186100 0.0 101111
08:00+13ese127528 0.0 1010135
11:00+19n1159100 0.0 1008873
14:00+17w1375100 0.3 1008465
17:00+16nw228765 1.4 1008655
20:00+15wnw1194100 1.6 100847